Flag for Germany Weather past 2 weeks in Lahr, Baden-Württemberg, Germany

Now
69 °F

Overcast.


Feels Like: 69 °F
Forecast: 44 / 77 °F
Wind: 2 mph from Northwest

Location: Lahr

Current Time: Jul 30, 2015 at 4:24:19 PM

Latest Report: Jul 30, 2015 at 4:00 PM


Visibility: 44 mi

Pressure: 30.00 "Hg

Humidity: 45%

Dew point: 46 °F

Location of LahrLocation

Historic Weather in Lahr — Graph

°F

Lahr temperature yesterday

Maximum temperature yesterday: 67 °F (at 7:00 PM)
Minimum temperature yesterday: 56 °F (at 6:00 AM)
Average temperature yesterday: 59 °F

Past Weeks' High & Low Weather Summary

 TemperatureHumidityPressure
High98 °F (Jul 17, 7:00 PM)96% (Jul 18, 6:00 AM)30.12 "Hg (Jul 18, 6:00 AM)
Low48 °F (Jul 26, 5:00 AM)22% (Jul 17, 2:00 PM)29.65 "Hg (Jul 24, 8:00 PM)
Average73 °F62%29.93 "Hg
* Reported Jul 15 3:00 PM — Jul 30 3:00 PM, Lahr, Weather by CustomWeather, © 2015

Note: Actual official high and low records may vary slightly from our data, if they occured in-between our weather recording intervals... More about our weather records

Advertising

Lahr weather history for previous 24 hours

 ConditionsComfort  
Time TempWeatherWind HumidityBarometerVisibility
3:00 PM
Thu, Jul 30
70 °FPartly sunny.2 mph39%30.01 "Hg47 mi
2:00 PM68 °FPartly sunny.2 mph42%30.01 "Hg43 mi
1:00 PM69 °FPartly sunny.3 mph43%30.01 "Hg43 mi
12:00 PM67 °FScattered clouds.3 mph49%30.03 "Hg43 mi
10:00 AM61 °FOvercast.2 mph69%30.02 "Hg47 mi
9:00 AM57 °FOvercast.2 mph80%30.03 "Hg47 mi
8:00 AM54 °FOvercast.1 mph88%30.02 "Hg47 mi
7:00 AM54 °FOvercast.2 mph90%30.01 "Hg40 mi
5:00 AM53 °FPassing clouds.1 mph90%30.01 "Hg34 mi
4:00 AM53 °FOvercast.1 mph92%30.01 "Hg25 mi
3:00 AM50 °FPassing clouds.1 mph93%30.01 "Hg25 mi
2:00 AM52 °FClear.2 mph86%30.01 "Hg37 mi
1:00 AM55 °FClear.3 mph85%30.00 "Hg31 mi
11:00 PM
Wed, Jul 29
57 °FClear.3 mph75%29.98 "Hg37 mi
10:00 PM58 °FClear.3 mph74%29.96 "Hg37 mi
9:00 PM63 °FScattered clouds.2 mph62%29.95 "Hg47 mi
8:00 PM66 °FPartly sunny.3 mph57%29.93 "Hg47 mi
7:00 PM67 °FScattered clouds.3 mph57%29.92 "Hg43 mi
6:00 PM64 °FPartly sunny.3 mph70%29.93 "Hg43 mi
5:00 PM62 °FPartly sunny.2 mph79%29.93 "Hg47 mi
4:00 PM60 °FOvercast.3 mph86%29.91 "Hg43 mi
Weather by CustomWeather, © 2015

See weather overviewHow to use our weather pages